| time (UTC) | temp C | wind direction | speed KPH | gust KPH | rain 1hr cm | rain 24hr cm | rain mn cm | humidity % | barometer mb |
| 20260505070004 | 6 | 188 | 0.0 | 1.6 | 0.00 | 0.20 | 0.00 | 91 | 1006.3 |
| 20260505065003 | 6 | 203 | 0.0 | 3.2 | 0.00 | 0.23 | 0.00 | 90 | 1006.6 |
| 20260505064004 | 6 | 191 | 0.0 | 1.6 | 0.00 | 0.28 | 0.00 | 89 | 1006.6 |
| 20260505063003 | 6 | 191 | 0.0 | 1.6 | 0.00 | 0.33 | 0.00 | 88 | 1006.3 |
| 20260505062004 | 7 | 205 | 0.0 | 3.2 | 0.00 | 0.36 | 0.00 | 86 | 1006.3 |
| 20260505061003 | 7 | 202 | 0.0 | 4.8 | 0.00 | 0.41 | 0.00 | 86 | 1006.0 |
| 20260505060004 | 7 | 199 | 0.0 | 3.2 | 0.00 | 0.46 | 0.00 | 86 | 1005.6 |
| 20260505055003 | 7 | 209 | 0.0 | 3.2 | 0.00 | 0.48 | 0.00 | 85 | 1006.0 |
| 20260505054003 | 7 | 204 | 1.6 | 9.7 | 0.00 | 0.53 | 0.00 | 85 | 1005.6 |
| 20260505053003 | 7 | 223 | 1.6 | 4.8 | 0.00 | 0.58 | 0.00 | 85 | 1006.0 |
| 20260505052003 | 7 | 214 | 1.6 | 9.7 | 0.00 | 0.64 | 0.00 | 84 | 1006.0 |
| 20260505051003 | 7 | 237 | 0.0 | 4.8 | 0.00 | 0.66 | 0.00 | 85 | 1005.6 |
| 20260505041003 | 7 | 260 | 1.6 | 6.4 | 0.00 | 0.89 | 0.00 | 82 | 1005.3 |
| 20260505040004 | 7 | 238 | 1.6 | 9.7 | 0.00 | 0.91 | 0.00 | 81 | 1005.3 |
| 20260505035004 | 7 | 219 | 1.6 | 6.4 | 0.00 | 0.94 | 0.00 | 81 | 1005.3 |
| 20260505034004 | 7 | 226 | 1.6 | 9.7 | 0.00 | 0.97 | 0.00 | 80 | 1005.3 |
| 20260505033003 | 7 | 247 | 1.6 | 6.4 | 0.00 | 0.97 | 0.00 | 81 | 1004.9 |
| 20260505032003 | 7 | 243 | 1.6 | 9.7 | 0.00 | 0.97 | 0.00 | 80 | 1004.9 |
| 20260505031004 | 7 | 244 | 1.6 | 11.3 | 0.00 | 0.97 | 0.00 | 79 | 1004.9 |
| 20260505030004 | 8 | 261 | 1.6 | 9.7 | 0.00 | 0.97 | 0.00 | 79 | 1004.6 |
| 20260505025004 | 8 | 268 | 3.2 | 12.9 | 0.00 | 0.97 | 0.97 | 78 | 1004.6 |
| 20260505024004 | 8 | 269 | 3.2 | 12.9 | 0.00 | 0.97 | 0.97 | 77 | 1004.3 |
| 20260505023003 | 8 | 269 | 3.2 | 12.9 | 0.00 | 0.97 | 0.97 | 77 | 1004.3 |
| 20260505022003 | 8 | 259 | 3.2 | 9.7 | 0.00 | 0.97 | 0.97 | 76 | 1004.3 |
| 20260505021004 | 8 | 244 | 3.2 | 11.3 | 0.00 | 0.97 | 0.97 | 75 | 1003.9 |
| 20260505020004 | 8 | 267 | 3.2 | 11.3 | 0.00 | 0.97 | 0.97 | 74 | 1003.6 |
| 20260505015003 | 9 | 276 | 3.2 | 14.5 | 0.00 | 0.97 | 0.97 | 73 | 1003.6 |
| 20260505014004 | 9 | 253 | 3.2 | 17.7 | 0.00 | 0.97 | 0.97 | 73 | 1003.6 |
| 20260505013004 | 9 | 243 | 3.2 | 11.3 | 0.00 | 0.99 | 0.97 | 72 | 1003.2 |
| 20260505012003 | 9 | 262 | 3.2 | 14.5 | 0.00 | 1.02 | 0.97 | 71 | 1003.2 |
| 20260505011004 | 9 | 252 | 3.2 | 9.7 | 0.00 | 1.04 | 0.97 | 69 | 1002.9 |
| 20260505010004 | 9 | 262 | 3.2 | 11.3 | 0.00 | 1.09 | 0.97 | 69 | 1002.6 |
| 20260505005004 | 10 | 252 | 3.2 | 11.3 | 0.00 | 1.19 | 0.97 | 68 | 1002.6 |
| 20260505004003 | 10 | 275 | 3.2 | 11.3 | 0.00 | 1.30 | 0.97 | 68 | 1002.6 |
| 20260505003004 | 10 | 277 | 4.8 | 22.5 | 0.00 | 1.42 | 0.97 | 67 | 1002.6 |
| 20260505002004 | 10 | 269 | 3.2 | 12.9 | 0.00 | 1.47 | 0.97 | 68 | 1001.9 |
| 20260505001003 | 10 | 244 | 3.2 | 11.3 | 0.00 | 1.50 | 0.97 | 69 | 1001.9 |
| 20260505000004 | 10 | 259 | 4.8 | 12.9 | 0.00 | 1.55 | 0.97 | 68 | 1001.9 |
| 20260504235003 | 10 | 271 | 3.2 | 12.9 | 0.00 | 1.63 | 0.97 | 68 | 1001.5 |
| 20260504234003 | 10 | 265 | 3.2 | 11.3 | 0.00 | 1.70 | 0.97 | 68 | 1001.5 |
| 20260504233004 | 10 | 271 | 4.8 | 16.1 | 0.00 | 1.78 | 0.97 | 66 | 1001.2 |
| 20260504232003 | 11 | 244 | 4.8 | 17.7 | 0.00 | 1.85 | 0.97 | 66 | 1001.2 |
| 20260504231004 | 10 | 281 | 3.2 | 20.9 | 0.00 | 1.96 | 0.97 | 67 | 1001.2 |
| 20260504230004 | 11 | 245 | 4.8 | 12.9 | 0.00 | 2.01 | 0.97 | 66 | 1001.2 |
| 20260504225004 | 11 | 239 | 3.2 | 12.9 | 0.00 | 2.06 | 0.97 | 66 | 1000.9 |
| 20260504224003 | 11 | 244 | 3.2 | 12.9 | 0.00 | 2.11 | 0.97 | 64 | 1000.5 |
| 20260504223004 | 11 | 237 | 3.2 | 9.7 | 0.00 | 2.13 | 0.97 | 64 | 1000.5 |
| 20260504222004 | 11 | 259 | 3.2 | 16.1 | 0.00 | 2.18 | 0.97 | 64 | 1000.5 |
| 20260504221003 | 11 | 241 | 6.4 | 22.5 | 0.00 | 2.26 | 0.97 | 62 | 1000.2 |
| 20260504220004 | 11 | 240 | 4.8 | 14.5 | 0.00 | 2.29 | 0.97 | 61 | 1000.2 |
| 20260504215003 | 11 | 230 | 4.8 | 16.1 | 0.00 | 2.34 | 0.97 | 60 | 999.8 |
| 20260504214003 | 12 | 245 | 4.8 | 14.5 | 0.00 | 2.36 | 0.97 | 58 | 1000.2 |
| 20260504213004 | 12 | 232 | 4.8 | 17.7 | 0.00 | 2.41 | 0.97 | 57 | 1000.2 |
| 20260504212004 | 12 | 263 | 6.4 | 27.4 | 0.00 | 2.49 | 0.97 | 56 | 1000.2 |
| 20260504211004 | 12 | 242 | 6.4 | 20.9 | 0.00 | 2.57 | 0.97 | 52 | 1000.2 |
| 20260504210004 | 12 | 218 | 6.4 | 22.5 | 0.00 | 2.62 | 0.97 | 49 | 999.8 |
| 20260504205003 | 13 | 240 | 6.4 | 27.4 | 0.00 | 2.67 | 0.97 | 46 | 999.8 |
| 20260504204003 | 13 | 245 | 6.4 | 24.1 | 0.00 | 2.72 | 0.97 | 44 | 999.5 |
| 20260504203003 | 13 | 252 | 3.2 | 20.9 | 0.00 | 2.74 | 0.97 | 43 | 999.5 |
| 20260504202004 | 13 | 266 | 6.4 | 16.1 | 0.00 | 2.79 | 0.97 | 37 | 999.5 |
| 20260504201004 | 14 | 282 | 8.0 | 24.1 | 0.00 | 2.84 | 0.97 | 35 | 999.2 |
| 20260504200004 | 14 | 276 | 8.0 | 27.4 | 0.00 | 2.95 | 0.97 | 34 | 999.2 |
| 20260504195003 | 15 | 263 | 6.4 | 20.9 | 0.00 | 3.05 | 0.97 | 32 | 998.8 |
| 20260504194003 | 15 | 280 | 8.0 | 22.5 | 0.00 | 3.15 | 0.97 | 32 | 999.2 |
| 20260504193003 | 16 | 283 | 9.7 | 29.0 | 0.00 | 3.23 | 0.97 | 30 | 998.8 |
| 20260504192003 | 16 | 293 | 8.0 | 30.6 | 0.00 | 3.35 | 0.97 | 29 | 998.8 |
| 20260504191003 | 16 | 283 | 9.7 | 25.7 | 0.00 | 3.51 | 0.97 | 30 | 998.8 |
| 20260504190004 | 16 | 284 | 8.0 | 33.8 | 0.00 | 3.68 | 0.97 | 29 | 998.8 |
| 20260504185003 | 16 | 275 | 8.0 | 27.4 | 0.00 | 3.78 | 0.97 | 28 | 998.8 |
| 20260504184003 | 16 | 278 | 8.0 | 29.0 | 0.00 | 3.91 | 0.97 | 29 | 998.8 |
| 20260504183003 | 15 | 290 | 9.7 | 29.0 | 0.00 | 4.01 | 0.97 | 35 | 998.8 |
| 20260504182003 | 15 | 275 | 9.7 | 29.0 | 0.00 | 4.09 | 0.97 | 31 | 998.8 |
| 20260504181003 | 15 | 277 | 9.7 | 29.0 | 0.00 | 4.19 | 0.97 | 32 | 998.8 |
| 20260504180003 | 14 | 284 | 8.0 | 33.8 | 0.00 | 4.27 | 0.97 | 33 | 998.8 |
| 20260504175003 | 14 | 277 | 11.3 | 30.6 | 0.00 | 4.34 | 0.97 | 33 | 998.8 |
| 20260504174003 | 14 | 271 | 9.7 | 27.4 | 0.00 | 4.42 | 0.97 | 34 | 998.8 |
| 20260504173004 | 14 | 278 | 9.7 | 25.7 | 0.00 | 4.47 | 0.97 | 34 | 998.8 |
| 20260504172003 | 13 | 238 | 6.4 | 20.9 | 0.00 | 4.55 | 0.97 | 35 | 998.8 |
| 20260504171003 | 13 | 252 | 9.7 | 25.7 | 0.00 | 4.60 | 0.97 | 36 | 999.2 |
| 20260504151003 | 10 | 274 | 8.0 | 24.1 | 0.00 | 4.70 | 0.97 | 57 | 999.2 |
| 20260504141003 | 8 | 273 | 8.0 | 29.0 | 0.00 | 4.72 | 0.97 | 68 | 998.5 |
| 20260504082004 | 3 | 281 | 6.4 | 14.5 | 0.10 | 4.72 | 0.94 | 98 | 994.4 |
| 20260504081003 | 3 | 283 | 8.0 | 29.0 | 0.10 | 4.70 | 0.91 | 98 | 994.0 |